Weather History for KGUS - March, 2013

Change the Weather History Date:

Monday, March 25, 2013

  Actual Average Record
Temperature  
Mean Temperature 32 °F -  
Max Temperature 36 °F 50 °F 78 °F (2007)
Min Temperature 27 °F 33 °F 19 °F (2001)
Degree Days  
Heating Degree Days 33    
Moisture  
Dew Point 28 °F    
Average Humidity 95    
Maximum Humidity 100    
Minimum Humidity 65    
Precipitation  
Precipitation 0.18 in - - ()
Sea Level Pressure  
Sea Level Pressure 29.64 in    
Wind  
Wind Speed 15 mph (NNW)    
Max Wind Speed 20 mph    
Max Gust Speed 26 mph    
Visibility 4 miles    
Events Fog , Snow    
Averages and records for this station are not official NWS values.
T = Trace of Precipitation, MM = Missing Value Source: NWS Daily Summary

Daily Weather History Graph

Daily Weather History Graph

Search for Another Location

Airport or City:

Trip Planner

Search our weather history database for the weather conditions in past years. The results will help you decide how hot, cold, wet, or windy it might be!

Date:

Astronomy

Mar. 25, 2013 Rise Set
Actual Time 7:39 AM EDT 8:02 PM EDT
Civil Twilight 7:11 AM EDT 8:29 PM EDT
Nautical Twilight 6:39 AM EDT 9:01 PM EDT
Astronomical Twilight 6:06 AM EDT 9:34 PM EDT
Moon 6:33 PM EDT (3/25) 6:22 AM EDT (3/25)
Length of Visible Light 13h 17m
Length of Day
12h 22m
Waxing Gibbous, 96% of the Moon is Illuminated
Mar 25
Waxing Gibbous
Mar 27
Full
Apr 3
Last Quarter
Apr 10
New
Apr 18
First Quarter

Hourly Weather History & Observations

Time (EDT) Temp. Windchill Dew Point Humidity Pressure Visibility Wind Dir Wind Speed Gust Speed Precip Events Conditions
12:05 AM 28.4 °F 15.4 °F 28.4 °F 100% 29.57 in 1.8 mi NNE 19.6 mph 26.5 mph N/A Snow Light Snow
12:20 AM 28.4 °F 16.6 °F 28.4 °F 100% 29.57 in 2.0 mi NNE 16.1 mph - N/A Snow Light Snow
12:34 AM 28.4 °F 18.5 °F 28.4 °F 100% 29.57 in 2.0 mi North 11.5 mph 21.9 mph N/A Snow Light Snow
12:43 AM 28.4 °F 19.1 °F 28.4 °F 100% 29.57 in 2.5 mi North 10.4 mph - N/A Snow Light Snow
12:46 AM 28.4 °F 18.5 °F 28.4 °F 100% 29.57 in 2.0 mi North 11.5 mph - N/A Snow Light Snow
12:51 AM 28.4 °F 18.5 °F 28.4 °F 100% 29.57 in 2.5 mi North 11.5 mph - N/A Snow Light Snow
12:55 AM 28.2 °F 16.8 °F 28.0 °F 99% 29.57 in 2.5 mi NNE 15.0 mph 20.7 mph 0.00 in Snow Light Snow
1:06 AM 28.4 °F 16.6 °F 28.4 °F 100% 29.57 in 2.5 mi North 16.1 mph - N/A Snow Light Snow
1:11 AM 28.4 °F 18.0 °F 28.4 °F 100% 29.57 in 2.5 mi North 12.7 mph - N/A Snow Light Snow
1:21 AM 28.4 °F 19.1 °F 28.4 °F 100% 29.56 in 2.5 mi North 10.4 mph - N/A Snow Light Snow
1:28 AM 28.4 °F 17.5 °F 28.4 °F 100% 29.56 in 2.5 mi North 13.8 mph 19.6 mph N/A Snow Light Snow
1:35 AM 28.4 °F 17.5 °F 28.4 °F 100% 29.56 in 2.0 mi North 13.8 mph - N/A Snow Light Snow
1:55 AM 28.0 °F 16.5 °F 28.0 °F 100% 29.56 in 2.0 mi North 15.0 mph 20.7 mph 0.00 in Snow Light Snow
2:01 AM 28.4 °F 18.0 °F 28.4 °F 100% 29.56 in 2.5 mi North 12.7 mph 19.6 mph N/A Snow Light Snow
2:14 AM 28.4 °F 18.5 °F 28.4 °F 100% 29.57 in 2.5 mi North 11.5 mph 20.7 mph N/A Snow Light Snow
2:18 AM 28.4 °F 18.5 °F 28.4 °F 100% 29.57 in 3.0 mi North 11.5 mph - N/A Snow Light Snow
2:33 AM 28.4 °F 17.5 °F 28.4 °F 100% 29.57 in 2.5 mi North 13.8 mph - N/A Snow Light Snow
2:37 AM 28.4 °F 18.5 °F 28.4 °F 100% 29.57 in 2.5 mi North 11.5 mph - N/A Snow Light Snow
2:55 AM 28.0 °F 17.5 °F 28.0 °F 100% 29.57 in 2.5 mi North 12.7 mph - 0.00 in Snow Light Snow
3:05 AM 28.4 °F 17.5 °F 28.4 °F 100% 29.57 in 2.5 mi North 13.8 mph - N/A Snow Light Snow
3:07 AM 28.4 °F 18.0 °F 28.4 °F 100% 29.57 in 2.5 mi North 12.7 mph - N/A Snow Light Snow
3:08 AM 28.4 °F 18.0 °F 28.4 °F 100% 29.57 in 3.0 mi North 12.7 mph - N/A Snow Light Snow
3:18 AM 28.4 °F 17.5 °F 28.4 °F 100% 29.57 in 3.0 mi North 13.8 mph - N/A Snow Light Snow
3:30 AM 28.4 °F 17.5 °F 28.4 °F 100% 29.57 in 3.0 mi North 13.8 mph - N/A Snow Light Snow
3:40 AM 28.4 °F 17.5 °F 28.4 °F 100% 29.57 in 3.0 mi NNW 13.8 mph - N/A Snow Light Snow
3:46 AM 28.4 °F 16.2 °F 28.4 °F 100% 29.56 in 2.5 mi North 17.3 mph - N/A Snow Light Snow
3:51 AM 28.4 °F 16.6 °F 28.4 °F 100% 29.57 in 2.5 mi North 16.1 mph - N/A Snow Light Snow
3:55 AM 28.0 °F 15.7 °F 27.9 °F 99% 29.57 in 2.5 mi North 17.3 mph - 0.00 in Snow Light Snow
3:59 AM 28.4 °F 17.0 °F 28.4 °F 100% 29.57 in 2.5 mi North 15.0 mph - N/A Snow Light Snow
4:02 AM 28.4 °F 17.5 °F 28.4 °F 100% 29.57 in 3.0 mi North 13.8 mph - N/A Snow Light Snow
4:03 AM 28.4 °F 17.5 °F 28.4 °F 100% 29.57 in 3.0 mi North 13.8 mph - N/A Snow Light Snow
4:14 AM 28.4 °F 17.0 °F 28.4 °F 100% 29.57 in 3.0 mi NNW 15.0 mph - N/A Snow Light Snow
4:23 AM 28.4 °F 16.6 °F 28.4 °F 100% 29.57 in 2.5 mi NNW 16.1 mph - N/A Snow Light Snow
4:26 AM 28.4 °F 17.0 °F 28.4 °F 100% 29.57 in 2.5 mi NNW 15.0 mph - N/A Snow Light Snow
4:34 AM 28.4 °F 17.0 °F 28.4 °F 100% 29.57 in 2.5 mi NNW 15.0 mph - N/A Snow Light Snow
4:36 AM 28.4 °F 17.5 °F 28.4 °F 100% 29.57 in 3.0 mi NNW 13.8 mph - N/A Snow Light Snow
4:47 AM 28.4 °F 16.6 °F 28.4 °F 100% 29.57 in 2.5 mi NNW 16.1 mph - N/A Snow Light Snow
4:49 AM 28.4 °F 17.0 °F 28.4 °F 100% 29.57 in 2.5 mi NNW 15.0 mph - N/A Snow Light Snow
4:55 AM 28.0 °F 16.1 °F 28.0 °F 100% 29.57 in 2.5 mi NNW 16.1 mph - 0.00 in Snow Light Snow
5:01 AM 28.4 °F 17.0 °F 28.4 °F 100% 29.57 in 2.0 mi NNW 15.0 mph - N/A Snow Light Snow
5:07 AM 28.4 °F 16.6 °F 28.4 °F 100% 29.57 in 2.5 mi NNW 16.1 mph - N/A Snow Light Snow
5:09 AM 28.4 °F 17.0 °F 28.4 °F 100% 29.57 in 2.5 mi NNW 15.0 mph - N/A Snow Light Snow
5:15 AM 28.4 °F 16.2 °F 28.4 °F 100% 29.57 in 3.0 mi NNW 17.3 mph - N/A Snow Light Snow
5:20 AM 28.4 °F 16.2 °F 28.4 °F 100% 29.57 in 2.5 mi NNW 17.3 mph - N/A Snow Light Snow
5:23 AM 28.4 °F 16.6 °F 28.4 °F 100% 29.57 in 3.0 mi NNW 16.1 mph - N/A Snow Light Snow
5:55 AM 28.0 °F 15.7 °F 27.9 °F 99% 29.58 in 3.0 mi NNW 17.3 mph - 0.00 in Snow Light Snow
5:58 AM 28.4 °F 17.0 °F 28.4 °F 100% 29.58 in 2.5 mi NNW 15.0 mph - N/A Snow Light Snow
6:02 AM 28.4 °F 16.2 °F 28.4 °F 100% 29.58 in 2.5 mi NNW 17.3 mph - N/A Snow Light Snow
6:03 AM 28.4 °F 16.2 °F 28.4 °F 100% 29.58 in 2.0 mi NNW 17.3 mph - N/A Snow Light Snow
6:07 AM 28.4 °F 17.0 °F 28.4 °F 100% 29.59 in 2.0 mi NNW 15.0 mph - N/A Snow Light Snow
6:08 AM 28.4 °F 17.0 °F 28.4 °F 100% 29.59 in 2.5 mi NNW 15.0 mph - N/A Snow Light Snow
6:10 AM 28.4 °F 17.0 °F 28.4 °F 100% 29.59 in 2.5 mi NNW 15.0 mph - N/A Snow Light Snow
6:11 AM 28.4 °F 17.0 °F 28.4 °F 100% 29.59 in 3.0 mi NNW 15.0 mph - N/A Snow Light Snow
6:15 AM 28.4 °F 17.0 °F 28.4 °F 100% 29.59 in 4.0 mi NNW 15.0 mph - N/A Snow Light Snow
6:18 AM 28.4 °F 17.0 °F 28.4 °F 100% 29.59 in 5.0 mi NNW 15.0 mph - N/A Snow Light Snow
6:25 AM 28.4 °F 17.5 °F 28.4 °F 100% 29.59 in 4.0 mi NNW 13.8 mph - N/A Snow Light Snow
6:27 AM 28.4 °F 16.6 °F 28.4 °F 100% 29.59 in 4.0 mi NNW 16.1 mph - N/A Snow Light Snow
6:28 AM 28.4 °F 16.6 °F 28.4 °F 100% 29.59 in 4.0 mi NNW 16.1 mph - N/A Snow Light Snow
6:36 AM 28.4 °F 16.6 °F 28.4 °F 100% 29.59 in 3.0 mi NNW 16.1 mph - N/A Snow Light Snow
6:38 AM 28.4 °F 17.0 °F 28.4 °F 100% 29.59 in 2.5 mi NNW 15.0 mph - N/A Snow Light Snow
6:39 AM 28.4 °F 16.2 °F 28.4 °F 100% 29.59 in 2.5 mi NNW 17.3 mph - N/A Snow Light Snow
6:55 AM 27.9 °F 15.9 °F 27.9 °F 100% 29.60 in 0.8 mi NNW 16.1 mph - 0.00 in Snow Light Snow
7:49 AM 28.4 °F 16.6 °F 28.4 °F 100% 29.58 in 0.5 mi NNW 16.1 mph - N/A Fog , Snow Snow
7:55 AM 27.9 °F 16.3 °F 27.9 °F 100% 29.62 in 0.2 mi NNW 15.0 mph - 0.02 in Fog , Snow Snow
8:04 AM 28.4 °F 17.5 °F 28.4 °F 100% 29.62 in 0.5 mi NNW 13.8 mph - N/A Fog Light Freezing Fog
8:06 AM 28.4 °F 17.5 °F 28.4 °F 100% 29.62 in 0.8 mi NNW 13.8 mph - N/A   Mist
8:08 AM 28.4 °F 17.5 °F 28.4 °F 100% 29.62 in 0.8 mi NNW 13.8 mph - N/A   Mist
8:11 AM 28.4 °F 17.5 °F 28.4 °F 100% 29.62 in 1.0 mi NW 13.8 mph - N/A   Mist
8:12 AM 28.4 °F 17.5 °F 28.4 °F 100% 29.62 in 1.0 mi NW 13.8 mph - N/A   Mist
8:17 AM 28.4 °F 18.5 °F 28.4 °F 100% 29.63 in 1.0 mi NW 11.5 mph - N/A Snow Light Snow
8:18 AM 28.4 °F 18.5 °F 28.4 °F 100% 29.63 in 1.2 mi NNW 11.5 mph - N/A Snow Light Snow
8:22 AM 28.4 °F 19.1 °F 28.4 °F 100% 29.60 in 0.5 mi NW 10.4 mph - N/A Fog , Snow Snow
8:55 AM 28.4 °F 19.1 °F 28.4 °F 100% 29.64 in 0.8 mi NW 10.4 mph - 0.08 in Snow Snow
9:55 AM 29.5 °F 18.8 °F 28.8 °F 97% 29.66 in 1.0 mi NNW 13.8 mph - 0.03 in Snow Light Snow
10:55 AM 30.9 °F 21.2 °F 29.7 °F 95% 29.69 in 1.0 mi NW 12.7 mph - 0.05 in Snow Light Snow
11:31 AM 32.0 °F 23.6 °F 30.2 °F 93% 29.70 in 1.0 mi NW 10.4 mph - N/A Snow Light Snow
11:55 AM 31.8 °F 21.8 °F 30.6 °F 95% 29.71 in 1.0 mi NW 13.8 mph - 0.02 in Snow Light Snow
12:36 PM 32.0 °F 22.1 °F 32.0 °F 100% 29.69 in 2.0 mi NW 13.8 mph - N/A Snow Light Snow
12:53 PM 32.0 °F 22.5 °F 32.0 °F 100% 29.69 in 10.0 mi NNW 12.7 mph - N/A Snow Light Snow
12:55 PM 33.1 °F 23.9 °F 30.2 °F 89% 29.73 in 10.0 mi NNW 12.7 mph - 0.01 in Snow Light Snow
1:03 PM 32.0 °F 21.2 °F 30.2 °F 93% 29.70 in 10.0 mi NNW 16.1 mph - N/A   Overcast
1:55 PM 35.1 °F 26.4 °F 28.2 °F 76% 29.74 in 10.0 mi NNW 12.7 mph - 0.00 in   Overcast
2:49 PM 37.4 °F 27.8 °F 26.6 °F 65% 29.76 in 10.0 mi NNW 17.3 mph - N/A   Overcast
2:55 PM 36.9 °F 26.5 °F 26.2 °F 65% 29.76 in 10.0 mi NNW 19.6 mph - N/A   Overcast
3:55 PM 36.1 °F 25.9 °F 26.6 °F 68% 29.78 in 10.0 mi NNW 18.4 mph - N/A   Overcast
4:21 PM 35.6 °F 26.6 °F 26.6 °F 70% 29.80 in 10.0 mi NW 13.8 mph - N/A   Overcast
4:55 PM 35.8 °F 25.4 °F 26.2 °F 68% 29.81 in 10.0 mi NNW 18.4 mph 24.2 mph N/A   Overcast
5:55 PM 34.7 °F 25.9 °F 27.7 °F 76% 29.85 in 10.0 mi NW 12.7 mph - N/A   Overcast
6:03 PM 35.6 °F 25.5 °F 26.6 °F 70% 29.86 in 10.0 mi NW 17.3 mph 21.9 mph N/A   Overcast
6:55 PM 34.5 °F 26.2 °F 27.9 °F 77% 29.88 in 10.0 mi NW 11.5 mph - N/A   Overcast
7:55 PM 34.0 °F 25.0 °F 28.0 °F 79% 29.92 in 10.0 mi NW 12.7 mph - N/A   Overcast
8:55 PM 33.8 °F 25.3 °F 27.5 °F 78% 29.95 in 10.0 mi NW 11.5 mph - N/A   Overcast
9:02 PM 33.8 °F 25.3 °F 28.4 °F 81% 29.95 in 10.0 mi NW 11.5 mph - N/A Snow Light Snow
9:16 PM 33.8 °F 24.8 °F 28.4 °F 81% 29.95 in 10.0 mi WNW 12.7 mph - N/A   Overcast
9:55 PM 33.4 °F 24.3 °F 27.7 °F 79% 29.97 in 10.0 mi WNW 12.7 mph - 0.00 in   Overcast
10:55 PM 33.1 °F 24.4 °F 28.2 °F 82% 29.99 in 10.0 mi WNW 11.5 mph - N/A   Overcast
11:35 PM 32.0 °F 22.5 °F 28.4 °F 87% 30.00 in 10.0 mi WNW 12.7 mph - N/A   Overcast
11:55 PM 32.4 °F 23.5 °F 29.7 °F 90% 30.01 in 10.0 mi WNW 11.5 mph - 0.00 in   Overcast